Regional Weather Roundup
Issued by NWS

Current Version | Previous Version | Text Only | Print | Product List | Glossary On
Versions: 1 2 3 4 5 6 7 8 9 10 11 12 13 14 15 16 17 18 19 20 21 22 23 24 25 26 27 28 29 30 31 32 33 34 35 36 37 38 39 40 41 42 43 44 45 46 47 48 49 50
000
ASUS46 KPQR 030210
RWROR

OREGON REGIONAL WEATHER ROUNDUP
NATIONAL WEATHER SERVICE PORTLAND OR
700 PM PDT TUE SEP 02 2014

NOTE: "FAIR" INDICATES FEW OR NO CLOUDS BELOW 12,000 FEET WITH
NO SIGNIFICANT WEATHER AND/OR OBSTRUCTIONS TO VISIBILITY.

ORZ001>013-030300-
NORTHWEST OREGON


CITY           SKY/WX    TMP DP  RH WIND       PRES   REMARKS
ASTORIA        PTCLDY    62  54  74 NW14G24   29.94S
NEWPORT        MOCLDY    59  57  94 CALM      30.02F
PORTLAND       PTCLDY    69  53  56 NW17      29.92R
VANCOUVER WA   MOCLDY    69  51  52 NW12      29.92R
SCAPPOOSE      CLEAR     67  52  58 W10       29.91S
HILLSBORO      PTCLDY    66  54  65 NW14      29.92R
AURORA         MOCLDY    69  52  54 VRB7G22   29.93R
MCMINNVILLE    MOCLDY    68  54  60 W13       29.95R
SALEM          PTCLDY    70  52  52 W13G21    29.93R
CORVALLIS      CLOUDY    70  52  52 NW20G25   29.96R
EUGENE         PTCLDY    74  51  44 NW16      29.93R
$$

ORZ021-028-030300-
SOUTHWEST OREGON


CITY           SKY/WX    TMP DP  RH WIND       PRES   REMARKS
NORTH BEND     CLEAR     64  57  77 N14G20    29.99S
BROOKINGS      CLEAR     75  53  46 NW10      29.80S
ROSEBURG       CLEAR     76  49  38 NW17G24   29.91R
SEXTON SUMMIT  CLEAR     63  49  60 VRB7      29.96F
MEDFORD        CLEAR     81  43  26 N15       29.85R
$$

ORZ009-041-030300-
COLUMBIA GORGE


CITY           SKY/WX    TMP DP  RH WIND       PRES   REMARKS
TROUTDALE      CLOUDY    70  52  52 NW14G25   29.89R
THE DALLES     CLOUDY    70  51  51 W16G25    29.81S
$$

ORZ029>031-042>050-061>064-030300-
EASTERN OREGON


CITY           SKY/WX    TMP DP  RH WIND       PRES   REMARKS
REDMOND        CLEAR     67  43  41 W24G35    29.86S
BEND           CLEAR     66  41  39 NW18G24   29.90S
KLAMATH FALLS  CLEAR     75  37  25 NW24      29.89F
LAKEVIEW       PTCLDY    77  23  13 W14       29.90S
HERMISTON      PTCLDY    73  48  41 W21G33    29.69R
PENDLETON      CLEAR     71  44  37 W32G38    29.72S
JOHN DAY       CLEAR     77  36  23 W17G24    29.80S
MEACHAM        CLEAR     63  41  44 VRB3      29.84S
LA GRANDE      CLEAR     72  34  25 NW12      29.76R
BAKER CITY     CLEAR     71  40  32 NW16G23   29.74S
BURNS          CLEAR     78  26  14 W17       29.79S
ROME             N/A     88  21   8 W14       29.74S
ONTARIO        CLEAR     82  46  28 CALM      29.64F
$$


USA.gov is the U.S. government's official web portal to all federal, state and local government web resources and services.